Location: Poughquag
(41.6090°N, 73.6820°W)
Time: 11:40:51
(UTC-04:00)

ACS3 Solar Sail - Pass Details

Date: 26 June 2024
Orbit: 992 x 1023 km, 97.4° (Epoch: 12 July)

Event Time Altitude Azimuth Distance (km) Brightness Sun altitude
Exits shadow 21:20:11 - 128° (SE) 2,821 6.5 -7.9°
Reaches altitude 10° 21:20:22 10° 127° (SE) 2,759 6.5 -7.9°
Maximum altitude 21:25:45 32° 67° (ENE) 1,635 5.8 -8.6°
Drops below altitude 10° 21:31:08 10° 7° (N) 2,765 7.7 -9.4°
Sets 21:33:52 0° 358° (N) 3,718 8.6 -9.8°
